Weather History for Provo, UT

Change the Weather History Date:

Wednesday, November 21, 2012

  Actual Average Record
Temperature  
Mean Temperature 50 °F -  
Max Temperature 62 °F 43 °F 64 °F (1996)
Min Temperature 39 °F 27 °F 19 °F (2000)
Degree Days  
Heating Degree Days 14    
Moisture  
Dew Point 31 °F    
Average Humidity 54    
Maximum Humidity 81    
Minimum Humidity 25    
Precipitation  
Precipitation 0.00 in - - ()
Sea Level Pressure  
Sea Level Pressure 30.06 in    
Wind  
Wind Speed 10 mph (SSE)    
Max Wind Speed 22 mph    
Max Gust Speed -    
Visibility 12 miles    
Events      
Averages and records for this station are not official NWS values.
T = Trace of Precipitation, MM = Missing Value Source: NWS Daily Summary

Daily Weather History Graph

Daily Weather History Graph

Search for Another Location

Airport:

Trip Planner

Search our weather history database for the weather conditions in past years. The results will help you decide how hot, cold, wet, or windy it might be!

Date:

Astronomy

Nov. 21, 2012 Rise Set
Actual Time 7:20 AM MST 5:05 PM MST
Civil Twilight 6:50 AM MST 5:35 PM MST
Nautical Twilight 6:17 AM MST 6:08 PM MST
Astronomical Twilight 5:44 AM MST 6:40 PM MST
Moon 1:24 PM MST 12:42 AM MST
Length of Visible Light 10h 44m
Length of Day
9h 45m
Waxing Gibbous, 62% of the Moon is Illuminated
Nov 21
Waxing Gibbous
Nov 28
Full
Dec 6
Last Quarter
Dec 13
New
Dec 19
First Quarter

Hourly Weather History & Observations

Time (MST) Temp. Windchill Dew Point Humidity Pressure Visibility Wind Dir Wind Speed Gust Speed Precip Events Conditions
12:15 AM 48.2 °F - 32.0 °F 54% 30.09 in 10.0 mi SE 15.0 mph - N/A   Clear
12:35 AM 48.2 °F - 32.0 °F 54% 30.09 in 10.0 mi SE 13.8 mph - N/A   Clear
12:55 AM 44.6 °F 38.4 °F 32.0 °F 61% 30.09 in 10.0 mi SSE 12.7 mph - N/A   Clear
1:15 AM 46.4 °F 42.4 °F 32.0 °F 57% 30.09 in 10.0 mi SSE 8.1 mph - N/A   Clear
1:35 AM 44.6 °F 40.2 °F 32.0 °F 61% 30.08 in 10.0 mi SE 8.1 mph - N/A   Clear
1:55 AM 42.8 °F 37.0 °F 30.2 °F 61% 30.08 in 10.0 mi SSE 10.4 mph - N/A   Clear
2:15 AM 44.6 °F 37.8 °F 33.8 °F 66% 30.07 in 10.0 mi SSE 15.0 mph - N/A   Clear
2:35 AM 44.6 °F 39.7 °F 32.0 °F 61% 30.08 in 10.0 mi SE 9.2 mph - N/A   Clear
2:55 AM 44.6 °F 38.1 °F 32.0 °F 61% 30.07 in 10.0 mi SSE 13.8 mph - N/A   Clear
3:15 AM 44.6 °F 40.7 °F 30.2 °F 57% 30.08 in 10.0 mi South 6.9 mph - N/A   Clear
3:35 AM 44.6 °F 38.8 °F 30.2 °F 57% 30.07 in 10.0 mi South 11.5 mph - N/A   Clear
3:55 AM 44.6 °F 39.7 °F 30.2 °F 57% 30.07 in 10.0 mi SSE 9.2 mph - N/A   Clear
4:15 AM 41.0 °F 34.7 °F 30.2 °F 65% 30.07 in 10.0 mi ESE 10.4 mph - N/A   Clear
4:35 AM 44.6 °F 38.8 °F 32.0 °F 61% 30.07 in 10.0 mi SSE 11.5 mph - N/A   Clear
4:55 AM 42.8 °F 37.5 °F 30.2 °F 61% 30.07 in 10.0 mi South 9.2 mph - N/A   Clear
5:15 AM 41.0 °F 33.9 °F 30.2 °F 65% 30.07 in 10.0 mi South 12.7 mph - N/A   Clear
5:35 AM 42.8 °F 36.6 °F 30.2 °F 61% 30.07 in 10.0 mi SSE 11.5 mph - N/A   Clear
6:15 AM 39.2 °F 31.6 °F 33.8 °F 81% 30.05 in 10.0 mi SE 12.7 mph - N/A   Clear
6:35 AM 42.8 °F 36.2 °F 30.2 °F 61% 30.06 in 10.0 mi SE 12.7 mph - N/A   Clear
6:48 AM 42.8 °F 38.0 °F 30.2 °F 61% 30.07 in 15.0 mi SE 8.1 mph - N/A   Partly Cloudy
7:55 AM 42.8 °F 39.3 °F 30.2 °F 61% 30.08 in 15.0 mi SSE 5.8 mph - N/A   Partly Cloudy
8:52 AM 46.4 °F 41.5 °F 30.2 °F 53% 30.08 in 15.0 mi SE 10.4 mph - N/A   Partly Cloudy
9:47 AM 51.8 °F - 32.0 °F 47% 30.08 in 15.0 mi ESE 8.1 mph - N/A   Partly Cloudy
10:57 AM 55.4 °F - 30.2 °F 38% 30.08 in 15.0 mi SE 6.9 mph - N/A   Scattered Clouds
11:50 AM 59.0 °F - 30.2 °F 34% 30.05 in 15.0 mi Calm Calm - N/A   Scattered Clouds
12:50 PM 62.6 °F - 28.4 °F 27% 30.02 in 15.0 mi Calm Calm - N/A   Scattered Clouds
1:50 PM 60.8 °F - 24.8 °F 25% 30.01 in 15.0 mi Variable 5.8 mph - N/A   Mostly Cloudy
3:50 PM 55.4 °F - 32.0 °F 41% 30.00 in 15.0 mi South 9.2 mph - N/A   Overcast
4:50 PM 55.4 °F - 30.2 °F 38% 30.00 in 15.0 mi South 9.2 mph - N/A   Overcast
5:54 PM 55.4 °F - 30.2 °F 38% 30.01 in 15.0 mi Calm Calm - N/A   Overcast
6:50 PM 51.8 °F - 30.2 °F 44% 30.02 in 15.0 mi Calm Calm - N/A   Overcast
7:56 PM 51.8 °F - 30.2 °F 44% 30.03 in 15.0 mi Calm Calm - N/A   Overcast
8:50 PM 51.8 °F - 32.0 °F 47% 30.03 in 15.0 mi SE 5.8 mph - N/A   Overcast
9:15 PM 51.8 °F - 32.0 °F 47% 30.04 in 10.0 mi ESE 4.6 mph - N/A   Overcast
9:35 PM 51.8 °F - 30.2 °F 44% 30.05 in 10.0 mi SE 6.9 mph - N/A   Overcast
9:55 PM 48.2 °F - 33.8 °F 58% 30.05 in 10.0 mi Calm Calm - N/A   Overcast
10:15 PM 51.8 °F - 30.2 °F 44% 30.07 in 10.0 mi WNW 10.4 mph - N/A   Overcast
10:35 PM 48.2 °F - 33.8 °F 58% 30.08 in 10.0 mi NW 6.9 mph - N/A   Overcast
10:55 PM 48.2 °F - 33.8 °F 58% 30.09 in 10.0 mi NW 19.6 mph - N/A   Overcast
11:15 PM 46.4 °F 39.0 °F 33.8 °F 62% 30.10 in 10.0 mi NW 19.6 mph - N/A   Overcast
11:35 PM 44.6 °F 36.6 °F 35.6 °F 71% 30.11 in 10.0 mi NW 19.6 mph - N/A   Scattered Clouds
11:55 PM 44.6 °F 36.1 °F 35.6 °F 71% 30.12 in 10.0 mi NW 21.9 mph - N/A   Clear